INTELSAT 14 (IS-14)

Last updated on Thu Dec 18 2025 00:02:48 GMT+0000 (Coordinated Universal Time)

1 36097U 09064A 25351.40363899 -.00000249 00000+0 00000+0 0 9996 2 36097 0.0122 320.5226 0002437 315.1724 270.9080 1.00272181 58787
UTC large
Height (km)
Speed (km/s)
/
Latitude / Longitude
Inclination (degrees)
Orbital Period (minutes)
Azimuth
Elevation
Range (km)
Doppler Factor

Next 0 passes for location: London (51.5072 / 0.1276)

Sorry there are no passes over London.